Weather History for Vero Beach, FL

Change the Weather History Date:

Sunday, March 3, 2013

  Actual Average Record
Temperature  
Mean Temperature 50 °F 66 °F  
Max Temperature 61 °F 76 °F 89 °F (2001)
Min Temperature 39 °F 56 °F 26 °F (1980)
Degree Days  
Heating Degree Days 15 3  
Month to date heating degree days 32 9  
Since 1 July heating degree days 260 394  
Cooling Degree Days 0 4  
Month to date cooling degree days 0 12  
Year to date cooling degree days 235 151  
Moisture  
Dew Point 32 °F    
Average Humidity 60    
Maximum Humidity 86    
Minimum Humidity 33    
Precipitation  
Precipitation 0.00 in 0.11 in 1.21 in (1943)
Month to date precipitation 0.00 0.32  
Year to date precipitation 2.55 5.49  
Sea Level Pressure  
Sea Level Pressure 30.05 in    
Wind  
Wind Speed 11 mph (WNW)    
Max Wind Speed 28 mph    
Max Gust Speed 36 mph    
Visibility 10 miles    
Events      
T = Trace of Precipitation, MM = Missing Value Source: NWS Daily Summary

Daily Weather History Graph

Daily Weather History Graph

Search for Another Location

Airport:

Trip Planner

Search our weather history database for the weather conditions in past years. The results will help you decide how hot, cold, wet, or windy it might be!

Date:

Astronomy

Mar. 03, 2013 Rise Set
Actual Time 6:43 AM EST 6:23 PM EST
Civil Twilight 6:20 AM EST 6:47 PM EST
Nautical Twilight 5:53 AM EST 7:14 PM EST
Astronomical Twilight 5:26 AM EST 7:41 PM EST
Moon No Moon Rise 10:31 AM EST (3/3)
Length of Visible Light 12h 26m
Length of Day
11h 39m
Waning Gibbous, 64% of the Moon is Illuminated
Mar 3
Waning Gibbous
Mar 4
Last Quarter
Mar 11
New
Mar 19
First Quarter
Mar 27
Full

Hourly Weather History & Observations

Time (EST) Temp. Windchill Dew Point Humidity Pressure Visibility Wind Dir Wind Speed Gust Speed Precip Events Conditions
12:53 AM 41.0 °F - 34.0 °F 76% 30.01 in 10.0 mi Calm Calm - N/A   Clear
1:53 AM 43.0 °F - 36.0 °F 76% 30.01 in 10.0 mi Calm Calm - N/A   Clear
2:53 AM 41.0 °F 39.0 °F 37.0 °F 86% 29.99 in 10.0 mi WSW 3.5 mph - N/A   Clear
3:53 AM 43.0 °F 38.2 °F 34.0 °F 71% 30.00 in 10.0 mi NW 8.1 mph - N/A   Partly Cloudy
4:53 AM 41.0 °F 34.7 °F 28.9 °F 62% 30.00 in 10.0 mi NW 10.4 mph - N/A   Scattered Clouds
5:53 AM 41.0 °F 34.7 °F 28.9 °F 62% 30.02 in 10.0 mi NW 10.4 mph - N/A   Scattered Clouds
7:53 AM 43.0 °F 38.8 °F 28.9 °F 58% 30.05 in 10.0 mi NW 6.9 mph - N/A   Clear
8:53 AM 46.0 °F 41.9 °F 28.0 °F 50% 30.07 in 10.0 mi NW 8.1 mph - N/A   Clear
9:53 AM 50.0 °F - 28.0 °F 43% 30.07 in 10.0 mi WNW 10.4 mph - N/A   Clear
10:53 AM 53.1 °F - 30.0 °F 41% 30.05 in 10.0 mi West 13.8 mph 18.4 mph N/A   Clear
11:53 AM 55.0 °F - 30.9 °F 40% 30.05 in 10.0 mi WNW 16.1 mph 21.9 mph N/A   Partly Cloudy
12:53 PM 57.9 °F - 32.0 °F 37% 30.02 in 10.0 mi West 17.3 mph 24.2 mph N/A   Partly Cloudy
1:53 PM 57.9 °F - 32.0 °F 37% 30.00 in 10.0 mi West 27.6 mph 32.2 mph N/A   Clear
2:53 PM 59.0 °F - 33.1 °F 38% 29.99 in 10.0 mi WNW 17.3 mph 26.5 mph N/A   Partly Cloudy
3:53 PM 59.0 °F - 30.9 °F 35% 29.99 in 10.0 mi WNW 21.9 mph 29.9 mph N/A   Clear
4:53 PM 55.0 °F - 30.9 °F 40% 30.01 in 10.0 mi WNW 15.0 mph 24.2 mph N/A   Scattered Clouds
5:53 PM 54.0 °F - 30.9 °F 41% 30.04 in 10.0 mi West 17.3 mph - N/A   Scattered Clouds
6:53 PM 51.1 °F - 32.0 °F 48% 30.06 in 10.0 mi WNW 12.7 mph - N/A   Scattered Clouds
7:53 PM 46.9 °F - 33.1 °F 59% 30.10 in 10.0 mi WNW 5.8 mph - N/A   Clear
8:53 PM 45.0 °F 42.6 °F 34.0 °F 65% 30.12 in 10.0 mi West 4.6 mph - N/A   Clear
9:53 PM 41.0 °F 37.1 °F 33.1 °F 73% 30.14 in 10.0 mi West 5.8 mph - N/A   Clear
10:53 PM 43.0 °F 37.7 °F 32.0 °F 65% 30.17 in 10.0 mi WNW 9.2 mph - N/A   Clear
11:53 PM 43.0 °F 37.2 °F 30.9 °F 62% 30.17 in 10.0 mi WNW 10.4 mph - N/A   Clear